Regional Weather Roundup
Issued by NWS

Current Version | Previous Version | Text Only | Print | Product List | Glossary On
Versions: 1 2 3 4 5 6 7 8 9 10 11 12 13 14 15 16 17 18 19 20 21 22 23 24 25 26 27 28 29 30 31 32 33 34 35 36 37 38 39 40 41 42 43 44 45 46 47 48 49 50
000
ASHW40 PHFO 301330
RWRHI

WEATHER ROUNDUP FOR HAWAII
NATIONAL WEATHER SERVICE HONOLULU HI
300 AM HST FRI SEP 30 2022

THIS IS AN AUTOMATED REPORT THAT HAS NOT BEEN QUALITY CONTROLLED.

NOTE..."FAIR" INDICATES FEW OR NO CLOUDS BELOW 12,000 FEET WITH NO
SIGNIFICANT WEATHER AND/OR OBSTRUCTIONS TO VISIBILITY.

* - THESE SITES REPORT LIMITED FIELDS
# - BUOY DATA PROVIDED BY PACIFIC ISLANDS OCEAN OBSERVING SYSTEM.

HIZ001-003-004-029>031-301400-
KAUAI-NIIHAU-

CITY           SKY/WX    TMP DP  RH WIND       PRES   REMARKS
LIHUE APT      LGT RAIN  74  72  93 W7        30.03F
PORT ALLEN*      N/A    N/A N/A N/A N8G15       N/A
POIPU*           N/A     75 N/A N/A NE3         N/A
KOKOLE POINT*  NOT AVBL
MOLOAA DAIRY*    N/A     73  72  94 SE3         N/A
WAIMEA HTS*    NOT AVBL
PUU OPAE*      NOT AVBL
PUU LUA*       NOT AVBL
MAKAHA RIDGE*    N/A     70  64  83 SW2         N/A
$$

HIZ006-007-009>011-032>036-301400-
OAHU-

CITY           SKY/WX    TMP DP  RH WIND       PRES   REMARKS
HONOLULU       PTCLDY    76  69  79 N5        30.02F
KALAELOA       CLEAR     71  65  81 CALM      30.03F
KANEOHE MCB    MOCLDY    78  71  79 MISG      30.00F
WHEELER FIELD  NOT AVBL
BELLOWS*         N/A     79 N/A N/A NE8         N/A
KAHUKU*          N/A     75 N/A N/A E1          N/A
WHEELER*       NOT AVBL
WAIANAE HARBOR NOT AVBL
DILLINGHAM*      N/A     66  64  94 CALM        N/A
KAHUKU TRN*      N/A     72  70  94 CALM        N/A
KAWAILOA*      NOT AVBL
KII*             N/A     77  72  83 E8          N/A
MAKUA RANGE*     N/A     72  64  78 E5          N/A
OAHU FOREST NW NOT AVBL
SCHOFIELD BRK*   N/A     66  64  94 W2          N/A
SCHOFIELD S*   NOT AVBL
WAIANAE VLY*   NOT AVBL
KUAOKALA*      NOT AVBL
HONOULIUULI*   NOT AVBL
MOKUOLOE IS*     N/A     79 N/A N/A MISG        N/A
PALEHUA*       NOT AVBL
WAIAWA PHB*    NOT AVBL
$$

HIZ037>041-301400-
MOLOKAI-

CITY           SKY/WX    TMP DP  RH WIND       PRES   REMARKS
MOLOKAI AIRPT  PTCLDY    73  68  84 CALM      30.03F
KALAUPAPA      NOT AVBL
MAKAPULAPAI*     N/A     75  70  83 S3G12       N/A
MOLOKAI 1*     NOT AVBL
PUU ALII*        N/A     63  63  99 NE2G12      N/A
$$

HIZ015-042>044-301400-
LANAI-

CITY           SKY/WX    TMP DP  RH WIND       PRES   REMARKS
LANAI CITY     FAIR      71  69  93 CALM      30.08F
LANAI 1*       NOT AVBL
$$

HIZ016-301400-
KAHOOLAWE-

CITY           SKY/WX    TMP DP  RH WIND       PRES   REMARKS
KAHOOLAWE*     NOT AVBL
HAKIOAWA*      NOT AVBL
HONOKANAIA*    NOT AVBL
KANELOA*         N/A     73  72  94 NE13G23   30.09F
KEALIALALO*    NOT AVBL
LUA MAKIKA*    NOT AVBL
$$

HIZ017-018-022-045>050-301400-
MAUI-

CITY           SKY/WX    TMP DP  RH WIND       PRES   REMARKS
KAHULUI        CLOUDY    77  67  71 CALM      30.01F
KAPALUA-W MAUI CLEAR     75  66  73 SE5       30.02
HANA AIRPORT   PTCLDY    75  73  94 CALM      30.05S
HANA*            N/A     77 N/A N/A SE5G12      N/A
HALEAKALA SUMM   N/A     48  -6  10 E15         N/A  VSB 0
MAALAEA BAY*     N/A     72 N/A N/A E5          N/A
HALEAKALA*     NOT AVBL
KAUPO GAP*     NOT AVBL
KULA 1*          N/A     50  46  85 E3          N/A
$$

HIZ023-026-051>054-301400-
BIG ISLAND OF HAWAII COAST AND LOWER SLOPES-

CITY           SKY/WX    TMP DP  RH WIND       PRES   REMARKS
KAILUA KONA    MOCLDY    78  67  68 NE3       30.00F
HILO           CLOUDY    73  70  90 W7        30.03F
HONOKAA*       NOT AVBL
KAWAIHAE MWT*  NOT AVBL
KAWAIHAE*        N/A     75 N/A N/A E1          N/A
SOUTH POINT*     N/A     70 N/A N/A NE13        N/A
UPOLU AIRPORT*   N/A     75 N/A N/A E8          N/A
KAMUELA*       NOT AVBL
HAKALAU*         N/A     55  53  94 S1          N/A
KALOKO-HONOKO*   N/A     73  64  73 NE3       29.98F
PALI 2*          N/A     66  64  94 NE8G16      N/A
KEALAKOMO*       N/A     75  70  83 NE8         N/A
KAUPULEHU*     NOT AVBL
KAPAPALA*        N/A     68  66  93 NE2G8       N/A
LOWER KAHUKU*    N/A     63  63 100 N1G8        N/A
PUHE CS*         N/A     73  64  73 E3        29.97F
PUHO CS*         N/A     74  64  72 E3          N/A
PTA KEAMUKU*     N/A     63  57  82 SE7         N/A
WAIKOLOA*      NOT AVBL
$$

HIZ027-028-301400-
BIG ISLAND OF HAWAII INTERIOR AND SUMMMITS-

CITY           SKY/WX    TMP DP  RH WIND       PRES   REMARKS
BRADSHAW FIELD NOT AVBL
MK VISITOR CEN   N/A     46  37  71 E1          N/A
MAUNA KEA*       N/A     37  -9  13 N6          N/A
MAUNA LOA*     NOT AVBL
MAUNA LOA 1*   NOT AVBL
PTA KIPUKA*      N/A     57  55  94 NE2         N/A
PTA RANGE 17*    N/A     54  54 100 E3          N/A
PTA WEST*        N/A     57  55  94 E9          N/A
NENE CABIN*      N/A     55  55 100 E3G10       N/A
AHUMOA*        NOT AVBL
PTA PORTABLE*  NOT AVBL
PUU MALI*        N/A     52  43  71 S3          N/A
$$

HIC003-301400-
NORTHWEST ISLANDS-

CITY           SKY/WX    TMP DP  RH WIND       PRES   REMARKS
MIDWAY ISLAND  CLEAR     81  75  83 S5        30.17F
MIDWAY NOS*    NOT AVBL
FRENCH FRIGATE NOT AVBL
$$

PHZ110>124-180-301400-
BUOY REPORTS

STATION/POSITION TIME  TEMP    WIND        PRES    WAVE   SWELL
                       AIR SEA DIR/SP/G            HT/PER HT/DIR
                 (UTC) (F)     (DEG/KT/KT) (MB)    (FT/S) (FT/D)
BUOY 51101       1310   80 82   60/ 10/ 12 1017.9
BUOY 51100       NOT AVBL
BUOY 51002       1310   79 81   90/ 14/ 16 1013.6
BUOY 51003       1310   80      90/ 14/ 17 1014.9
BUOY 51004       1310   79 80   70/ 12/ 16 1013.3
WAIMEA BAY#      1256      81                N/A     3/ 9
MOKAPU POINT#    1256      81                N/A     4/ 7   2/ 70
LANAI#           1258      81                N/A     3/10   2/180
BARBERS PT#      1200      82                N/A     3/10   2/180
PAUWELA#         1256      80                N/A     5/ 7
HILO#            1315      81                N/A     6/ 8   2/110
KANEOHE BAY#     1256      81                N/A     4/ 7
KANEOHE BAY 2#   NOT AVBL
HANALEI#         1226      82                N/A     4/ 7
KAHULUI HARBOR   1254   78 81  330/  5/  8 1016.2F
HONOLULU HARBOR  1254   77 81  320/  2/  4 1016.6F
PEARL HARBOR#    1300   76 81                N/A     3/10   2/170
KILO NALU        NOT AVBL
HILO HARBOR      1254   72 81  260/  5/  9 1016.2F
MOKUOLOE         1236   79 82  100/  4/  7 1016.5F
NAWILIWILI       1254   75 87  250/  5/  6 1017.5F
WHOTS BUOY       NOT AVBL
BUOY 51028       NOT AVBL
$$

......................KEY........................................
  SKY/WX - SKY CONDITIONS/PRESENT WEATHER
  TMP    - TEMPERATURE IN FAHRENHEIT
  DWPT   - DEWPOINT IN FAHRENHEIT
  RH     - RELATIVE HUMIDITY IN PERCENT
  WIND   - DIRECTION AND SPEED /MPH FOR ISLANDS...KTS FOR BUOYS/
  PRES   - MEAN SEA LEVEL PRESSURE IN INCHES OF HG
  VSB    - VISIBILITY IN MILES
  HX     - HEAT INDEX
  WCI    - WIND CHILL INDEX
  VRB    - VARIABLE WIND DIRECTION
  N/A    - NOT AVAILABLE



USA.gov is the U.S. government's official web portal to all federal, state and local government web resources and services.